,,,PA_Meas_PMT16A,,PR_Meas_QMR101_102,,RH_Meas_QMH101,,SR_Meas_QMS101,,TA_Meas_QMH101,,GenWind,,GenWind,
date,time,status,PA,status,PR,status,RH,status,SR,status,TA,status,DirAvg,status,SpdAvg,
2009-05-14, 00:00:04,VALID,1005.83,VALID,0,VALID,83.6393,VALID,0,VALID,24.7055,VALID,285,VALID,0.449609,
2009-05-14, 00:01:04,VALID,1005.82,VALID,0,VALID,83.7613,VALID,0,VALID,24.7055,VALID,317,VALID,0.547266,
2009-05-14, 00:02:04,VALID,1005.83,VALID,0,VALID,83.6469,VALID,0,VALID,24.7269,VALID,287,VALID,0.726172,
2009-05-14, 00:03:04,VALID,1005.82,VALID,0,VALID,83.5783,VALID,0,VALID,24.7269,VALID,303,VALID,0.886328,
2009-05-14, 00:04:04,VALID,1005.8,VALID,0,VALID,83.6088,VALID,0,VALID,24.7464,VALID,338,VALID,1.05313,
2009-05-14, 00:05:04,VALID,1005.79,VALID,0,VALID,83.6164,VALID,0,VALID,24.7269,VALID,14,VALID,0.834766,
2009-05-14, 00:06:04,VALID,1005.72,VALID,0,VALID,83.5706,VALID,0,VALID,24.7055,VALID,291,VALID,0.581641,
2009-05-14, 00:07:04,VALID,1005.69,VALID,0,VALID,83.7689,VALID,0,VALID,24.7055,VALID,328,VALID,0.523047,
2009-05-14, 00:08:04,VALID,1005.68,VALID,0,VALID,83.8604,VALID,0,VALID,24.7055,VALID,316,VALID,0.299219,
2009-05-14, 00:09:04,VALID,1005.68,VALID,0,VALID,83.6393,VALID,0,VALID,24.7269,VALID,288,VALID,0.875781,
2009-05-14, 00:10:04,VALID,1005.69,VALID,0,VALID,83.7689,VALID,0,VALID,24.7074,VALID,352,VALID,0.585938,
2009-05-14, 00:11:04,VALID,1005.69,VALID,0,VALID,83.7536,VALID,0,VALID,24.7074,VALID,341,VALID,1.08477,
2009-05-14, 00:12:04,VALID,1005.71,VALID,0,VALID,83.8299,VALID,0,VALID,24.6666,VALID,39,VALID,0.553125,
2009-05-14, 00:13:04,VALID,1005.72,VALID,0,VALID,83.8452,VALID,0,VALID,24.6684,VALID,335,VALID,0.823438,
2009-05-14, 00:14:04,VALID,1005.75,VALID,0,VALID,83.8757,VALID,0,VALID,24.6684,VALID,345,VALID,0.902734,
2009-05-14, 00:15:04,VALID,1005.76,VALID,0,VALID,83.8604,VALID,0,VALID,24.6276,VALID,355,VALID,0.291016,
2009-05-14, 00:16:04,VALID,1005.76,VALID,0,VALID,83.8452,VALID,0,VALID,24.6276,VALID,311,VALID,0.438672,
2009-05-14, 00:17:04,VALID,1005.79,VALID,0,VALID,83.7155,VALID,0,VALID,24.6489,VALID,328,VALID,0.904297,
2009-05-14, 00:18:04,VALID,1005.81,VALID,0,VALID,83.807,VALID,0,VALID,24.6276,VALID,338,VALID,0.780859,
2009-05-14, 00:19:04,VALID,1005.85,VALID,0,VALID,83.746,VALID,0,VALID,24.6081,VALID,314,VALID,1.43828,
2009-05-14, 00:20:04,VALID,1005.87,VALID,0,VALID,83.7613,VALID,0,VALID,24.6489,VALID,322,VALID,0.912891,
2009-05-14, 00:21:04,VALID,1005.89,VALID,0,VALID,83.7918,VALID,0,VALID,24.6489,VALID,282,VALID,1.10781,
2009-05-14, 00:22:04,VALID,1005.95,VALID,0,VALID,83.8757,VALID,0,VALID,24.6276,VALID,321,VALID,0.982813,
2009-05-14, 00:23:04,VALID,1006,VALID,0,VALID,83.8528,VALID,0,VALID,24.6489,VALID,295,VALID,0.425391,
2009-05-14, 00:24:04,VALID,1006,VALID,0,VALID,83.9443,VALID,0.105969,VALID,24.6276,VALID,322,VALID,1.40117,
2009-05-14, 00:25:04,VALID,1006.03,VALID,0,VALID,83.8985,VALID,0,VALID,24.6276,VALID,310,VALID,0.982031,
2009-05-14, 00:26:04,VALID,1006.09,VALID,0,VALID,84.0358,VALID,0,VALID,24.6489,VALID,311,VALID,1.58203,
2009-05-14, 00:27:04,VALID,1006.08,VALID,0,VALID,84.0739,VALID,0,VALID,24.6276,VALID,312,VALID,1.11836,
2009-05-14, 00:28:04,VALID,1006.12,VALID,0,VALID,84.1959,VALID,0,VALID,24.6294,VALID,312,VALID,1.16523,
2009-05-14, 00:29:04,VALID,1006.12,VALID,0,VALID,84.2951,VALID,0,VALID,24.6081,VALID,310,VALID,0.744922,
2009-05-14, 00:30:04,VALID,1006.09,VALID,0,VALID,84.3561,VALID,0,VALID,24.6081,VALID,315,VALID,1.24688,
2009-05-14, 00:31:04,VALID,1006.09,VALID,0,VALID,84.5315,VALID,0,VALID,24.6099,VALID,296,VALID,0.949609,
2009-05-14, 00:32:04,VALID,1006.06,VALID,0,VALID,84.6001,VALID,0,VALID,24.5691,VALID,327,VALID,1.31211,
2009-05-14, 00:33:04,VALID,1006.05,VALID,0,VALID,84.6916,VALID,0,VALID,24.5691,VALID,308,VALID,1.31758,
2009-05-14, 00:34:04,VALID,1006.01,VALID,0,VALID,84.7526,VALID,0,VALID,24.5496,VALID,329,VALID,1.19375,
2009-05-14, 00:35:04,VALID,1005.97,VALID,0,VALID,84.8594,VALID,0,VALID,24.5496,VALID,10,VALID,0.528906,
2009-05-14, 00:36:04,VALID,1005.93,VALID,0,VALID,84.9814,VALID,0,VALID,24.5496,VALID,356,VALID,0.473437,
2009-05-14, 00:37:04,VALID,1005.88,VALID,0,VALID,85.0348,VALID,0,VALID,24.5301,VALID,327,VALID,0.957812,
2009-05-14, 00:38:04,VALID,1005.84,VALID,0,VALID,85.1415,VALID,0,VALID,24.5106,VALID,3,VALID,0.616797,
2009-05-14, 00:39:04,VALID,1005.77,VALID,0,VALID,85.2788,VALID,0,VALID,24.532,VALID,360,VALID,0.622656,
2009-05-14, 00:40:04,VALID,1005.71,VALID,0,VALID,85.3093,VALID,0,VALID,24.493,VALID,345,VALID,0.860156,
2009-05-14, 00:41:04,VALID,1005.59,VALID,0,VALID,85.4161,VALID,0,VALID,24.4911,VALID,38,VALID,0.498437,
2009-05-14, 00:42:04,VALID,1005.51,VALID,0,VALID,85.4999,VALID,0,VALID,24.4717,VALID,328,VALID,0.527734,
2009-05-14, 00:43:04,VALID,1005.45,VALID,0,VALID,85.5533,VALID,0,VALID,24.4735,VALID,14,VALID,0.630078,
2009-05-14, 00:44:04,VALID,1005.36,VALID,0,VALID,85.6448,VALID,0,VALID,24.4522,VALID,351,VALID,0.591016,
2009-05-14, 00:45:04,VALID,1005.34,VALID,0,VALID,85.7974,VALID,0.105969,VALID,24.4717,VALID,29,VALID,0.518359,
2009-05-14, 00:46:04,VALID,1005.29,VALID,0,VALID,85.9346,VALID,0,VALID,24.4735,VALID,12,VALID,0.141797,
2009-05-14, 00:47:04,VALID,1005.31,VALID,0,VALID,85.988,VALID,0,VALID,24.4522,VALID,18,VALID,0.247656,
2009-05-14, 00:48:04,VALID,1005.29,VALID,0,VALID,86.0795,VALID,0,VALID,24.4522,VALID,307,VALID,0.578906,
2009-05-14, 00:49:04,VALID,1005.3,VALID,0,VALID,86.1558,VALID,0,VALID,24.4522,VALID,292,VALID,0.205078,
2009-05-14, 00:50:04,VALID,1005.31,VALID,0,VALID,86.171,VALID,0,VALID,24.4522,VALID,294,VALID,0.643359,
2009-05-14, 00:51:04,VALID,1005.31,VALID,0,VALID,86.0871,VALID,0,VALID,24.4735,VALID,287,VALID,0.337109,
2009-05-14, 00:52:04,VALID,1005.3,VALID,0,VALID,86.0643,VALID,0,VALID,24.4522,VALID,9,VALID,0.108594,
2009-05-14, 00:53:04,VALID,1005.32,VALID,0,VALID,85.9956,VALID,0,VALID,24.4717,VALID,341,VALID,0.940625,
2009-05-14, 00:54:04,VALID,1005.31,VALID,0,VALID,85.9422,VALID,0,VALID,24.493,VALID,332,VALID,0.604688,
2009-05-14, 00:55:04,VALID,1005.26,VALID,0,VALID,85.9117,VALID,0,VALID,24.493,VALID,324,VALID,0.533984,
2009-05-14, 00:56:04,VALID,1005.26,VALID,0,VALID,85.8889,VALID,0,VALID,24.4717,VALID,317,VALID,1.05117,
2009-05-14, 00:57:04,VALID,1005.24,VALID,0,VALID,85.866,VALID,0,VALID,24.4911,VALID,323,VALID,0.703516,
2009-05-14, 00:58:04,VALID,1005.26,VALID,0,VALID,85.8126,VALID,0,VALID,24.5106,VALID,336,VALID,1.09922,
2009-05-14, 00:59:04,VALID,1005.23,VALID,0,VALID,85.8126,VALID,0,VALID,24.5106,VALID,318,VALID,0.545703,
2009-05-14, 01:00:04,VALID,1005.27,VALID,0,VALID,85.7668,VALID,0,VALID,24.5106,VALID,328,VALID,0.691797,
2009-05-14, 01:01:04,VALID,1005.3,VALID,0,VALID,85.7287,VALID,0,VALID,24.5106,VALID,334,VALID,0.296094,
2009-05-14, 01:02:04,VALID,1005.32,VALID,0,VALID,85.7897,VALID,0.105969,VALID,24.5106,VALID,321,VALID,0.510156,
2009-05-14, 01:03:04,VALID,1005.3,VALID,0,VALID,85.8736,VALID,0,VALID,24.532,VALID,321,VALID,0.000390625,
2009-05-14, 01:04:04,VALID,1005.3,VALID,0,VALID,85.8889,VALID,0,VALID,24.532,VALID,358,VALID,0.586719,
2009-05-14, 01:05:04,VALID,1005.3,VALID,0,VALID,85.9422,VALID,0,VALID,24.5301,VALID,359,VALID,0.417578,
2009-05-14, 01:06:04,VALID,1005.3,VALID,0,VALID,85.8889,VALID,0,VALID,24.5106,VALID,296,VALID,0.114453,
2009-05-14, 01:07:04,VALID,1005.3,VALID,0,VALID,85.9575,VALID,0,VALID,24.532,VALID,290,VALID,0.143359,
2009-05-14, 01:08:04,VALID,1005.26,VALID,0,VALID,85.9117,VALID,0,VALID,24.532,VALID,343,VALID,0.8625,
2009-05-14, 01:09:04,VALID,1005.26,VALID,0,VALID,85.927,VALID,0,VALID,24.5106,VALID,308,VALID,0.823047,
2009-05-14, 01:10:04,VALID,1005.21,VALID,0,VALID,85.8431,VALID,0,VALID,24.5515,VALID,351,VALID,1.08633,
2009-05-14, 01:11:04,VALID,1005.18,VALID,0,VALID,85.8355,VALID,0,VALID,24.5515,VALID,330,VALID,0.153516,
2009-05-14, 01:12:04,VALID,1005.15,VALID,0,VALID,85.9041,VALID,0,VALID,24.5301,VALID,329,VALID,0,
2009-05-14, 01:13:04,VALID,1005.1,VALID,0,VALID,86.0185,VALID,0,VALID,24.5496,VALID,328,VALID,0,
2009-05-14, 01:14:04,VALID,1005.05,VALID,0,VALID,85.927,VALID,0,VALID,24.5496,VALID,323,VALID,0,
2009-05-14, 01:15:04,VALID,1004.99,VALID,0,VALID,85.927,VALID,0,VALID,24.5691,VALID,322,VALID,0,
2009-05-14, 01:16:04,VALID,1004.93,VALID,0,VALID,85.9346,VALID,0.105969,VALID,24.5496,VALID,360,VALID,0,
2009-05-14, 01:17:04,VALID,1004.9,VALID,0,VALID,86.0261,VALID,0.105969,VALID,24.5691,VALID,360,VALID,0,
2009-05-14, 01:18:04,VALID,1004.86,VALID,0,VALID,85.988,VALID,0,VALID,24.5496,VALID,318,VALID,0,
2009-05-14, 01:19:04,VALID,1004.81,VALID,0,VALID,85.8279,VALID,0,VALID,24.5496,VALID,15,VALID,1.21602,
2009-05-14, 01:20:04,VALID,1004.78,VALID,0,VALID,85.8736,VALID,0,VALID,24.5301,VALID,311,VALID,0.752344,
2009-05-14, 01:21:04,VALID,1004.76,VALID,0,VALID,85.8965,VALID,0,VALID,24.5301,VALID,326,VALID,0.636328,
2009-05-14, 01:22:04,VALID,1004.73,VALID,0,VALID,86.0643,VALID,0,VALID,24.5301,VALID,338,VALID,0.190625,
2009-05-14, 01:23:04,VALID,1004.7,VALID,0,VALID,86.1253,VALID,0,VALID,24.4911,VALID,311,VALID,0.894922,
2009-05-14, 01:24:04,VALID,1004.67,VALID,0,VALID,86.0871,VALID,0,VALID,24.493,VALID,310,VALID,1.10039,
2009-05-14, 01:25:04,VALID,1004.67,VALID,0,VALID,86.171,VALID,0,VALID,24.4717,VALID,326,VALID,0.594531,
2009-05-14, 01:26:04,VALID,1004.63,VALID,0,VALID,86.2168,VALID,0,VALID,24.4735,VALID,340,VALID,0.0121094,
2009-05-14, 01:27:04,VALID,1004.62,VALID,0,VALID,86.3159,VALID,0,VALID,24.4735,VALID,324,VALID,0.128516,
2009-05-14, 01:28:04,VALID,1004.61,VALID,0,VALID,86.3235,VALID,0,VALID,24.4735,VALID,314,VALID,0.898047,
2009-05-14, 01:29:04,VALID,1004.63,VALID,0,VALID,86.3007,VALID,0,VALID,24.4735,VALID,274,VALID,0.425,
2009-05-14, 01:30:04,VALID,1004.61,VALID,0,VALID,86.354,VALID,0,VALID,24.4522,VALID,339,VALID,0.417188,
2009-05-14, 01:31:04,VALID,1004.61,VALID,0,VALID,86.3693,VALID,0,VALID,24.454,VALID,339,VALID,0.109766,
2009-05-14, 01:32:04,VALID,1004.6,VALID,0,VALID,86.3998,VALID,0,VALID,24.454,VALID,336,VALID,0.6875,
2009-05-14, 01:33:04,VALID,1004.59,VALID,0,VALID,86.4227,VALID,0,VALID,24.4327,VALID,318,VALID,0.425,
2009-05-14, 01:34:04,VALID,1004.56,VALID,0,VALID,86.5065,VALID,0,VALID,24.4327,VALID,313,VALID,0.258984,
2009-05-14, 01:35:04,VALID,1004.52,VALID,0,VALID,86.537,VALID,0.105969,VALID,24.4132,VALID,8,VALID,0.485938,
2009-05-14, 01:36:04,VALID,1004.5,VALID,0,VALID,86.5904,VALID,0,VALID,24.3937,VALID,346,VALID,0,
2009-05-14, 01:37:04,VALID,1004.47,VALID,0,VALID,86.6362,VALID,0,VALID,24.3937,VALID,345,VALID,0,
2009-05-14, 01:38:04,VALID,1004.46,VALID,0,VALID,86.6972,VALID,0,VALID,24.3742,VALID,346,VALID,0,
2009-05-14, 01:39:04,VALID,1004.44,VALID,0,VALID,86.7658,VALID,0,VALID,24.3742,VALID,295,VALID,0,
2009-05-14, 01:40:04,VALID,1004.45,VALID,0,VALID,86.7963,VALID,0,VALID,24.3742,VALID,24,VALID,0.0222656,
2009-05-14, 01:41:04,VALID,1004.47,VALID,0,VALID,86.8192,VALID,0,VALID,24.3761,VALID,18,VALID,0.238281,
2009-05-14, 01:42:04,VALID,1004.48,VALID,0,VALID,86.865,VALID,0,VALID,24.3547,VALID,44,VALID,0.512109,
2009-05-14, 01:43:04,VALID,1004.5,VALID,0,VALID,86.9183,VALID,0,VALID,24.3352,VALID,52,VALID,0.0605469,
2009-05-14, 01:44:04,VALID,1004.53,VALID,0,VALID,86.987,VALID,0,VALID,24.3352,VALID,52,VALID,0.0445312,
2009-05-14, 01:45:04,VALID,1004.54,VALID,0,VALID,87.0556,VALID,0,VALID,24.3566,VALID,12,VALID,0.181641,
2009-05-14, 01:46:04,VALID,1004.58,VALID,0,VALID,87.0709,VALID,0,VALID,24.3352,VALID,326,VALID,0.343359,
2009-05-14, 01:47:04,VALID,1004.58,VALID,0,VALID,87.1166,VALID,0,VALID,24.3547,VALID,248,VALID,0.0578125,
2009-05-14, 01:48:04,VALID,1004.57,VALID,0,VALID,87.0937,VALID,0,VALID,24.3352,VALID,260,VALID,0.0277344,
2009-05-14, 01:49:04,VALID,1004.58,VALID,0,VALID,87.1852,VALID,0,VALID,24.3547,VALID,260,VALID,0,
2009-05-14, 01:50:04,VALID,1004.57,VALID,0,VALID,87.2539,VALID,0,VALID,24.3761,VALID,260,VALID,0,
2009-05-14, 01:51:04,VALID,1004.54,VALID,0,VALID,87.2386,VALID,0.105969,VALID,24.3761,VALID,10,VALID,0,
2009-05-14, 01:52:04,VALID,1004.54,VALID,0,VALID,87.2386,VALID,0,VALID,24.3352,VALID,16,VALID,0.25,
2009-05-14, 01:53:04,VALID,1004.55,VALID,0,VALID,87.2462,VALID,0,VALID,24.3566,VALID,16,VALID,0.537109,
2009-05-14, 01:54:04,VALID,1004.51,VALID,0,VALID,87.2157,VALID,0,VALID,24.3566,VALID,358,VALID,0.281641,
2009-05-14, 01:55:04,VALID,1004.53,VALID,0,VALID,87.2081,VALID,0,VALID,24.3566,VALID,28,VALID,0.500781,
2009-05-14, 01:56:04,VALID,1004.53,VALID,0,VALID,87.2005,VALID,0,VALID,24.3566,VALID,23,VALID,0.335547,
2009-05-14, 01:57:04,VALID,1004.55,VALID,0,VALID,87.2767,VALID,0,VALID,24.3761,VALID,23,VALID,0,
2009-05-14, 01:58:04,VALID,1004.54,VALID,0,VALID,87.3225,VALID,0,VALID,24.3547,VALID,23,VALID,0,
2009-05-14, 01:59:04,VALID,1004.57,VALID,0,VALID,87.3454,VALID,0,VALID,24.3547,VALID,23,VALID,0,
2009-05-14, 02:00:04,VALID,1004.58,VALID,0,VALID,87.4064,VALID,0,VALID,24.3566,VALID,23,VALID,0,
2009-05-14, 02:01:04,VALID,1004.62,VALID,0,VALID,87.4903,VALID,0,VALID,24.3566,VALID,291,VALID,0,
2009-05-14, 02:02:04,VALID,1004.61,VALID,0,VALID,87.5513,VALID,0,VALID,24.415,VALID,291,VALID,0.393359,
2009-05-14, 02:03:04,VALID,1004.6,VALID,0,VALID,87.5742,VALID,0,VALID,24.415,VALID,292,VALID,0.309375,
2009-05-14, 02:04:04,VALID,1004.61,VALID,0,VALID,87.5055,VALID,0,VALID,24.415,VALID,303,VALID,0.983203,
2009-05-14, 02:05:04,VALID,1004.62,VALID,0,VALID,87.3988,VALID,0,VALID,24.4345,VALID,309,VALID,0.710938,
2009-05-14, 02:06:04,VALID,1004.62,VALID,0,VALID,87.3073,VALID,0,VALID,24.4345,VALID,315,VALID,0.0191406,
2009-05-14, 02:07:04,VALID,1004.65,VALID,0,VALID,87.2691,VALID,0,VALID,24.454,VALID,295,VALID,0.490234,
2009-05-14, 02:08:04,VALID,1004.68,VALID,0,VALID,87.3988,VALID,0,VALID,24.493,VALID,356,VALID,0.149219,
2009-05-14, 02:09:04,VALID,1004.73,VALID,0,VALID,87.3378,VALID,0,VALID,24.493,VALID,355,VALID,0.204297,
2009-05-14, 02:10:04,VALID,1004.77,VALID,0,VALID,87.3073,VALID,0,VALID,24.5125,VALID,355,VALID,0.166406,
2009-05-14, 02:11:04,VALID,1004.79,VALID,0,VALID,87.292,VALID,0,VALID,24.5338,VALID,339,VALID,0.335156,
2009-05-14, 02:12:04,VALID,1004.83,VALID,0,VALID,87.2386,VALID,0,VALID,24.5338,VALID,302,VALID,0.699609,
2009-05-14, 02:13:04,VALID,1004.82,VALID,0,VALID,87.1624,VALID,0,VALID,24.532,VALID,296,VALID,0.692187,
2009-05-14, 02:14:04,VALID,1004.85,VALID,0,VALID,87.0709,VALID,0,VALID,24.5728,VALID,279,VALID,1.2875,
2009-05-14, 02:15:04,VALID,1004.81,VALID,0,VALID,86.9793,VALID,0.105969,VALID,24.5691,VALID,291,VALID,0.896094,
2009-05-14, 02:16:04,VALID,1004.8,VALID,0,VALID,86.9412,VALID,0.105969,VALID,24.5886,VALID,314,VALID,1.0082,
2009-05-14, 02:17:04,VALID,1004.79,VALID,0,VALID,86.8421,VALID,0.105969,VALID,24.5886,VALID,357,VALID,0.307422,
2009-05-14, 02:18:04,VALID,1004.77,VALID,0,VALID,86.8192,VALID,0.105969,VALID,24.6081,VALID,342,VALID,0.791016,
2009-05-14, 02:19:04,VALID,1004.74,VALID,0,VALID,86.9183,VALID,0,VALID,24.6081,VALID,332,VALID,0.414844,
2009-05-14, 02:20:04,VALID,1004.69,VALID,0,VALID,86.9107,VALID,0,VALID,24.6081,VALID,314,VALID,0.500391,
2009-05-14, 02:21:04,VALID,1004.67,VALID,0,VALID,86.9336,VALID,0.105969,VALID,24.6081,VALID,341,VALID,0.746875,
2009-05-14, 02:22:04,VALID,1004.66,VALID,0,VALID,87.0098,VALID,0.105969,VALID,24.6081,VALID,316,VALID,0.415234,
2009-05-14, 02:23:04,VALID,1004.66,VALID,0,VALID,87.0098,VALID,0.105969,VALID,24.6081,VALID,270,VALID,0.563281,
2009-05-14, 02:24:04,VALID,1004.68,VALID,0,VALID,86.987,VALID,0.105969,VALID,24.5886,VALID,311,VALID,0.470703,
2009-05-14, 02:25:04,VALID,1004.7,VALID,0,VALID,86.9946,VALID,0,VALID,24.6081,VALID,280,VALID,0.196094,
2009-05-14, 02:26:04,VALID,1004.67,VALID,0,VALID,87.0251,VALID,0.105969,VALID,24.6081,VALID,320,VALID,0.883594,
2009-05-14, 02:27:04,VALID,1004.66,VALID,0,VALID,86.987,VALID,0,VALID,24.6099,VALID,318,VALID,0.222656,
2009-05-14, 02:28:04,VALID,1004.64,VALID,0,VALID,87.048,VALID,0,VALID,24.5886,VALID,316,VALID,0.557031,
2009-05-14, 02:29:04,VALID,1004.63,VALID,0,VALID,87.0327,VALID,0.105969,VALID,24.6081,VALID,327,VALID,1.42734,
2009-05-14, 02:30:04,VALID,1004.63,VALID,0,VALID,87.0556,VALID,0.105969,VALID,24.5886,VALID,313,VALID,1.45195,
2009-05-14, 02:31:04,VALID,1004.61,VALID,0,VALID,87.0785,VALID,0.105969,VALID,24.5886,VALID,345,VALID,0.6,
2009-05-14, 02:32:04,VALID,1004.58,VALID,0,VALID,87.1242,VALID,0,VALID,24.5886,VALID,302,VALID,0.376953,
2009-05-14, 02:33:04,VALID,1004.54,VALID,0,VALID,87.1395,VALID,0.105969,VALID,24.5886,VALID,328,VALID,0.539063,
2009-05-14, 02:34:04,VALID,1004.51,VALID,0,VALID,87.1395,VALID,0.105969,VALID,24.5886,VALID,355,VALID,0.583594,
2009-05-14, 02:35:04,VALID,1004.52,VALID,0,VALID,87.2234,VALID,0.105969,VALID,24.5886,VALID,358,VALID,0.319531,
2009-05-14, 02:36:04,VALID,1004.5,VALID,0,VALID,87.2005,VALID,0.105969,VALID,24.5886,VALID,337,VALID,1.31016,
2009-05-14, 02:37:04,VALID,1004.49,VALID,0,VALID,87.1929,VALID,0,VALID,24.5691,VALID,15,VALID,0.678125,
2009-05-14, 02:38:04,VALID,1004.45,VALID,0,VALID,87.2615,VALID,0.105969,VALID,24.5691,VALID,19,VALID,0.149219,
2009-05-14, 02:39:04,VALID,1004.47,VALID,0,VALID,87.3225,VALID,0,VALID,24.5496,VALID,328,VALID,0.0113281,
2009-05-14, 02:40:04,VALID,1004.47,VALID,0,VALID,87.2767,VALID,0,VALID,24.5691,VALID,325,VALID,0.703125,
2009-05-14, 02:41:04,VALID,1004.48,VALID,0,VALID,87.231,VALID,0,VALID,24.5691,VALID,325,VALID,0.350391,
2009-05-14, 02:42:04,VALID,1004.45,VALID,0,VALID,87.231,VALID,0,VALID,24.5691,VALID,325,VALID,0,
2009-05-14, 02:43:04,VALID,1004.47,VALID,0,VALID,87.231,VALID,0,VALID,24.5691,VALID,353,VALID,0.03125,
2009-05-14, 02:44:04,VALID,1004.44,VALID,0,VALID,87.2157,VALID,0.105969,VALID,24.5886,VALID,195,VALID,0.399219,
2009-05-14, 02:45:04,VALID,1004.49,VALID,0,VALID,87.1395,VALID,0.105969,VALID,24.5886,VALID,207,VALID,0.358203,
2009-05-14, 02:46:04,VALID,1004.51,VALID,0,VALID,87.0556,VALID,0,VALID,24.5886,VALID,207,VALID,0.00742187,
2009-05-14, 02:47:04,VALID,1004.51,VALID,0,VALID,87.0556,VALID,0,VALID,24.6081,VALID,209,VALID,0.621484,
2009-05-14, 02:48:04,VALID,1004.54,VALID,0,VALID,87.1395,VALID,0.105969,VALID,24.6276,VALID,209,VALID,0.767187,
2009-05-14, 02:49:04,VALID,1004.58,VALID,0,VALID,87.2462,VALID,0,VALID,24.6471,VALID,209,VALID,0.382031,
2009-05-14, 02:50:04,VALID,1004.59,VALID,0,VALID,87.2081,VALID,0,VALID,24.6666,VALID,221,VALID,0.194922,
2009-05-14, 02:51:04,VALID,1004.63,VALID,0,VALID,87.1852,VALID,0.105969,VALID,24.686,VALID,211,VALID,0,
2009-05-14, 02:52:04,VALID,1004.63,VALID,0,VALID,87.1624,VALID,0.105969,VALID,24.7055,VALID,219,VALID,0.628125,
2009-05-14, 02:53:04,VALID,1004.67,VALID,0,VALID,87.1624,VALID,0,VALID,24.7445,VALID,201,VALID,0.790625,
2009-05-14, 02:54:04,VALID,1004.69,VALID,0,VALID,87.1471,VALID,0,VALID,24.7835,VALID,225,VALID,0.599609,
2009-05-14, 02:55:04,VALID,1004.71,VALID,0,VALID,87.1624,VALID,0,VALID,24.803,VALID,229,VALID,0.702734,
2009-05-14, 02:56:04,VALID,1004.72,VALID,0,VALID,87.1471,VALID,0.105969,VALID,24.842,VALID,224,VALID,0.998047,
2009-05-14, 02:57:04,VALID,1004.73,VALID,0,VALID,87.1547,VALID,0.105969,VALID,24.8401,VALID,231,VALID,0.781641,
2009-05-14, 02:58:04,VALID,1004.75,VALID,0,VALID,87.1547,VALID,0.105969,VALID,24.8809,VALID,202,VALID,0.723437,
2009-05-14, 02:59:04,VALID,1004.75,VALID,0,VALID,87.1776,VALID,0,VALID,24.9004,VALID,206,VALID,0.990625,
2009-05-14, 03:00:04,VALID,1004.74,VALID,0,VALID,87.2234,VALID,0.105969,VALID,24.9199,VALID,197,VALID,0.718359,
2009-05-14, 03:01:04,VALID,1004.72,VALID,0,VALID,87.2615,VALID,0.105969,VALID,24.9394,VALID,233,VALID,0.348047,
2009-05-14, 03:02:04,VALID,1004.67,VALID,0,VALID,87.3073,VALID,0.105969,VALID,24.9589,VALID,211,VALID,0.116016,
2009-05-14, 03:03:04,VALID,1004.65,VALID,0,VALID,87.292,VALID,0.105969,VALID,24.9979,VALID,223,VALID,1.01328,
2009-05-14, 03:04:04,VALID,1004.66,VALID,0,VALID,87.292,VALID,0.105969,VALID,25.0369,VALID,207,VALID,1.25977,
2009-05-14, 03:05:04,VALID,1004.62,VALID,0,VALID,86.7506,VALID,0.105969,VALID,25.0954,VALID,240,VALID,2.31641,
2009-05-14, 03:06:04,VALID,1004.57,VALID,0,VALID,86.0033,VALID,0.105969,VALID,25.1733,VALID,236,VALID,2.4543,
2009-05-14, 03:07:04,VALID,1004.51,VALID,0,VALID,85.4542,VALID,0.105969,VALID,25.2104,VALID,239,VALID,0.988281,
2009-05-14, 03:08:04,VALID,1004.5,VALID,0,VALID,85.0577,VALID,0.105969,VALID,25.2903,VALID,249,VALID,1.2418,
2009-05-14, 03:09:04,VALID,1004.44,VALID,0,VALID,84.1121,VALID,0.105969,VALID,25.3488,VALID,230,VALID,1.0582,
2009-05-14, 03:10:04,VALID,1004.39,VALID,0,VALID,83.8375,VALID,0.105969,VALID,25.4072,VALID,231,VALID,1.28828,
2009-05-14, 03:11:04,VALID,1004.32,VALID,0,VALID,83.6469,VALID,0.105969,VALID,25.4462,VALID,219,VALID,1.00312,
2009-05-14, 03:12:04,VALID,1004.27,VALID,0,VALID,83.7918,VALID,0.105969,VALID,25.4852,VALID,245,VALID,0.60625,
2009-05-14, 03:13:04,VALID,1004.23,VALID,0,VALID,83.7536,VALID,0,VALID,25.4852,VALID,248,VALID,0.978125,
2009-05-14, 03:14:04,VALID,1004.24,VALID,0,VALID,83.9367,VALID,0.105969,VALID,25.5047,VALID,257,VALID,0.271875,
2009-05-14, 03:15:04,VALID,1004.22,VALID,0,VALID,83.5173,VALID,0,VALID,25.4852,VALID,298,VALID,0.917188,
2009-05-14, 03:16:04,VALID,1004.24,VALID,0,VALID,83.319,VALID,0,VALID,25.5047,VALID,289,VALID,0.776563,
2009-05-14, 03:17:04,VALID,1004.26,VALID,0,VALID,83.0445,VALID,0,VALID,25.5047,VALID,266,VALID,0.453516,
2009-05-14, 03:18:04,VALID,1004.27,VALID,0,VALID,82.6937,VALID,0,VALID,25.5242,VALID,304,VALID,0.776953,
2009-05-14, 03:19:04,VALID,1004.24,VALID,0,VALID,82.4725,VALID,0,VALID,25.5456,VALID,293,VALID,1.02148,
2009-05-14, 03:20:04,VALID,1004.25,VALID,0,VALID,82.3353,VALID,0,VALID,25.5437,VALID,297,VALID,0.987891,
2009-05-14, 03:21:04,VALID,1004.2,VALID,0,VALID,82.2819,VALID,0,VALID,25.5632,VALID,303,VALID,1.18164,
2009-05-14, 03:22:04,VALID,1004.17,VALID,0,VALID,82.4954,VALID,0,VALID,25.5846,VALID,321,VALID,0.320313,
2009-05-14, 03:23:04,VALID,1004.18,VALID,0,VALID,82.1675,VALID,0,VALID,25.5437,VALID,300,VALID,0.757031,
2009-05-14, 03:24:04,VALID,1004.11,VALID,0,VALID,82.1522,VALID,0,VALID,25.5437,VALID,314,VALID,0.96875,
2009-05-14, 03:25:04,VALID,1004.1,VALID,0,VALID,82.5488,VALID,0,VALID,25.5437,VALID,326,VALID,0.351563,
2009-05-14, 03:26:04,VALID,1004.08,VALID,0,VALID,82.8462,VALID,0,VALID,25.5242,VALID,325,VALID,0.569922,
2009-05-14, 03:27:04,VALID,1004.08,VALID,0,VALID,82.7776,VALID,0,VALID,25.4852,VALID,336,VALID,0.664844,
2009-05-14, 03:28:04,VALID,1004.06,VALID,0,VALID,82.8919,VALID,0,VALID,25.4677,VALID,309,VALID,0.63125,
2009-05-14, 03:29:04,VALID,1004.06,VALID,0,VALID,82.8614,VALID,0,VALID,25.4267,VALID,327,VALID,0.907812,
2009-05-14, 03:30:04,VALID,1004.07,VALID,0,VALID,82.9987,VALID,0,VALID,25.4482,VALID,290,VALID,0.445313,
2009-05-14, 03:31:04,VALID,1004.14,VALID,0,VALID,82.9453,VALID,0.105969,VALID,25.4072,VALID,307,VALID,1.11172,
2009-05-14, 03:32:04,VALID,1004.14,VALID,0,VALID,82.9453,VALID,0,VALID,25.3877,VALID,291,VALID,0.810156,
2009-05-14, 03:33:04,VALID,1004.21,VALID,0,VALID,83.0445,VALID,0,VALID,25.3877,VALID,279,VALID,0.944141,
2009-05-14, 03:34:04,VALID,1004.25,VALID,0,VALID,83.1207,VALID,0,VALID,25.3877,VALID,338,VALID,0.500391,
2009-05-14, 03:35:04,VALID,1004.24,VALID,0,VALID,83.1283,VALID,0,VALID,25.3683,VALID,264,VALID,0.758203,
2009-05-14, 03:36:04,VALID,1004.24,VALID,0,VALID,83.0445,VALID,0,VALID,25.3683,VALID,275,VALID,0.694922,
2009-05-14, 03:37:04,VALID,1004.25,VALID,0,VALID,83.0902,VALID,0,VALID,25.3683,VALID,337,VALID,0.344531,
2009-05-14, 03:38:04,VALID,1004.24,VALID,0,VALID,83.0902,VALID,0,VALID,25.3683,VALID,288,VALID,0.819922,
2009-05-14, 03:39:04,VALID,1004.23,VALID,0,VALID,83.014,VALID,0,VALID,25.3897,VALID,282,VALID,0.926562,
2009-05-14, 03:40:04,VALID,1004.24,VALID,0,VALID,83.1283,VALID,0,VALID,25.3683,VALID,254,VALID,0.510156,
2009-05-14, 03:41:04,VALID,1004.24,VALID,0,VALID,83.197,VALID,0,VALID,25.3683,VALID,315,VALID,1.0793,
2009-05-14, 03:42:04,VALID,1004.29,VALID,0,VALID,83.1512,VALID,0,VALID,25.3683,VALID,276,VALID,0.583984,
2009-05-14, 03:43:04,VALID,1004.28,VALID,0,VALID,83.0673,VALID,0,VALID,25.3897,VALID,322,VALID,1.06133,